Time,TemperatureF,DewpointF,PressureIn,WindDirection,WindDirectionDegrees,WindSpeedMPH,WindSpeedGustMPH,Humidity,HourlyPrecipIn,Conditions,Clouds,dailyrainin,SoftwareType,DateUTC
2013-04-10 00:14:00,41.8,39.0,29.97,SW,224,0.0,-999.0,91,-99.99,,,0.04,weatherlink.com 1.10,2013-04-10 04:14:00,
2013-04-10 00:29:00,41.7,39.0,29.96,SW,224,1.0,-999.0,91,-99.99,,,0.04,weatherlink.com 1.10,2013-04-10 04:29:00,
2013-04-10 00:44:00,41.6,40.0,29.97,SW,224,0.0,-999.0,92,-99.99,,,0.05,weatherlink.com 1.10,2013-04-10 04:44:00,
2013-04-10 00:59:00,41.5,39.0,29.97,SW,224,1.0,-999.0,92,-99.99,,,0.08,weatherlink.com 1.10,2013-04-10 04:59:00,
2013-04-10 01:14:00,41.5,40.0,29.98,SW,224,3.0,-999.0,93,-99.99,,,0.12,weatherlink.com 1.10,2013-04-10 05:14:00,
2013-04-10 01:30:00,41.1,39.0,29.98,South,187,0.0,-999.0,93,-99.99,,,0.16,weatherlink.com 1.10,2013-04-10 05:30:00,
2013-04-10 01:45:00,41.2,39.0,29.99,South,188,0.0,-999.0,93,-99.99,,,0.20,weatherlink.com 1.10,2013-04-10 05:45:00,
2013-04-10 02:00:00,41.3,40.0,29.99,South,187,0.0,-999.0,93,-99.99,,,0.24,weatherlink.com 1.10,2013-04-10 06:00:00,
2013-04-10 02:15:00,41.2,40.0,30.00,SSW,198,2.0,-999.0,94,-99.99,,,0.31,weatherlink.com 1.10,2013-04-10 06:15:00,
2013-04-10 02:30:00,41.3,40.0,29.98,SE,145,0.0,-999.0,94,-99.99,,,0.35,weatherlink.com 1.10,2013-04-10 06:30:00,
2013-04-10 02:45:00,41.1,40.0,29.96,SE,141,0.0,-999.0,94,-99.99,,,0.38,weatherlink.com 1.10,2013-04-10 06:45:00,
2013-04-10 03:00:00,41.0,39.0,29.97,SE,124,1.0,-999.0,94,-99.99,,,0.39,weatherlink.com 1.10,2013-04-10 07:00:00,
2013-04-10 03:15:00,41.0,39.0,29.96,SE,124,0.0,-999.0,94,-99.99,,,0.40,weatherlink.com 1.10,2013-04-10 07:15:00,
2013-04-10 03:30:00,41.0,39.0,29.95,SE,124,2.0,-999.0,94,-99.99,,,0.41,weatherlink.com 1.10,2013-04-10 07:30:00,
2013-04-10 03:45:00,41.1,40.0,29.95,SE,124,0.0,-999.0,94,-99.99,,,0.42,weatherlink.com 1.10,2013-04-10 07:45:00,
2013-04-10 04:00:00,41.0,40.0,29.95,SE,124,0.0,-999.0,95,-99.99,,,0.42,weatherlink.com 1.10,2013-04-10 08:00:00,
2013-04-10 04:15:00,41.0,40.0,29.95,SE,124,0.0,-999.0,95,-99.99,,,0.43,weatherlink.com 1.10,2013-04-10 08:15:00,
2013-04-10 04:30:00,41.0,40.0,29.95,SE,124,0.0,-999.0,95,-99.99,,,0.43,weatherlink.com 1.10,2013-04-10 08:30:00,
2013-04-10 04:45:00,41.0,40.0,29.94,SE,124,0.0,-999.0,95,-99.99,,,0.43,weatherlink.com 1.10,2013-04-10 08:45:00,
2013-04-10 05:00:00,41.0,40.0,29.94,SE,124,0.0,-999.0,95,-99.99,,,0.44,weatherlink.com 1.10,2013-04-10 09:00:00,
2013-04-10 05:15:00,40.8,40.0,29.93,SE,124,0.0,-999.0,95,-99.99,,,0.44,weatherlink.com 1.10,2013-04-10 09:15:00,
2013-04-10 05:30:00,40.7,39.0,29.93,SE,124,0.0,-999.0,95,-99.99,,,0.44,weatherlink.com 1.10,2013-04-10 09:30:00,
2013-04-10 05:45:00,40.7,39.0,29.93,SE,124,1.0,-999.0,95,-99.99,,,0.44,weatherlink.com 1.10,2013-04-10 09:45:00,
2013-04-10 06:00:00,40.7,39.0,29.94,SE,124,1.0,-999.0,95,-99.99,,,0.44,weatherlink.com 1.10,2013-04-10 10:00:00,
2013-04-10 06:15:00,40.7,39.0,29.95,SE,124,1.0,-999.0,95,-99.99,,,0.44,weatherlink.com 1.10,2013-04-10 10:15:00,
2013-04-10 06:30:00,40.6,39.0,29.96,NNW,346,0.0,-999.0,95,-99.99,,,0.44,weatherlink.com 1.10,2013-04-10 10:30:00,
2013-04-10 06:45:00,40.8,40.0,29.96,NW,315,0.0,-999.0,95,-99.99,,,0.44,weatherlink.com 1.10,2013-04-10 10:45:00,
2013-04-10 07:00:00,41.0,40.0,29.96,NW,314,0.0,-999.0,95,-99.99,,,0.44,weatherlink.com 1.10,2013-04-10 11:00:00,
2013-04-10 07:15:00,41.1,40.0,29.96,NW,315,0.0,-999.0,95,-99.99,,,0.44,weatherlink.com 1.10,2013-04-10 11:15:00,
2013-04-10 07:30:00,41.3,40.0,29.97,NW,315,0.0,-999.0,95,-99.99,,,0.44,weatherlink.com 1.10,2013-04-10 11:30:00,
2013-04-10 07:45:00,41.3,40.0,29.96,North,359,0.0,-999.0,95,-99.99,,,0.44,weatherlink.com 1.10,2013-04-10 11:45:00,
2013-04-10 08:00:00,41.8,41.0,29.97,North,359,0.0,-999.0,96,-99.99,,,0.44,weatherlink.com 1.10,2013-04-10 12:00:00,
2013-04-10 08:15:00,42.1,41.0,29.97,North,359,0.0,-999.0,95,-99.99,,,0.44,weatherlink.com 1.10,2013-04-10 12:15:00,
2013-04-10 08:30:00,42.3,41.0,29.98,North,359,2.0,-999.0,95,-99.99,,,0.44,weatherlink.com 1.10,2013-04-10 12:30:00,
2013-04-10 08:45:00,42.3,41.0,29.98,NNE,15,0.0,-999.0,95,-99.99,,,0.44,weatherlink.com 1.10,2013-04-10 12:45:00,
2013-04-10 09:00:00,42.4,41.0,29.98,NNE,15,2.0,-999.0,96,-99.99,,,0.44,weatherlink.com 1.10,2013-04-10 13:00:00,
2013-04-10 09:15:00,42.3,41.0,29.98,NNE,15,0.0,-999.0,96,-99.99,,,0.44,weatherlink.com 1.10,2013-04-10 13:15:00,
2013-04-10 09:30:00,42.8,42.0,29.98,NNE,15,0.0,-999.0,96,-99.99,,,0.44,weatherlink.com 1.10,2013-04-10 13:30:00,
2013-04-10 09:45:00,43.1,42.0,29.98,NNE,15,0.0,-999.0,96,-99.99,,,0.44,weatherlink.com 1.10,2013-04-10 13:45:00,
2013-04-10 10:00:00,43.9,43.0,30.00,NNE,15,0.0,-999.0,96,-99.99,,,0.44,weatherlink.com 1.10,2013-04-10 14:00:00,
2013-04-10 10:15:00,44.4,43.0,30.00,NNE,15,0.0,-999.0,96,-99.99,,,0.44,weatherlink.com 1.10,2013-04-10 14:15:00,
2013-04-10 10:30:00,45.0,44.0,30.00,NE,43,0.0,-999.0,96,-99.99,,,0.44,weatherlink.com 1.10,2013-04-10 14:30:00,
2013-04-10 10:45:00,45.0,44.0,29.99,NNW,328,2.0,-999.0,96,-99.99,,,0.44,weatherlink.com 1.10,2013-04-10 14:45:00,
2013-04-10 11:00:00,45.0,44.0,30.00,NNW,330,0.0,-999.0,96,-99.99,,,0.44,weatherlink.com 1.10,2013-04-10 15:00:00,
2013-04-10 11:15:00,45.6,45.0,29.98,NNE,15,0.0,-999.0,96,-99.99,,,0.44,weatherlink.com 1.10,2013-04-10 15:15:00,
2013-04-10 11:30:00,46.1,45.0,29.98,NNE,15,4.0,-999.0,96,-99.99,,,0.44,weatherlink.com 1.10,2013-04-10 15:30:00,
2013-04-10 11:45:00,46.5,45.0,29.98,NW,311,0.0,-999.0,95,-99.99,,,0.44,weatherlink.com 1.10,2013-04-10 15:45:00,
2013-04-10 12:00:00,46.7,45.0,29.98,North,360,3.0,-999.0,94,-99.99,,,0.44,weatherlink.com 1.10,2013-04-10 16:00:00,
2013-04-10 12:15:00,47.0,45.0,29.98,North,353,2.0,-999.0,93,-99.99,,,0.44,weatherlink.com 1.10,2013-04-10 16:15:00,
2013-04-10 12:30:00,47.3,45.0,29.98,NNW,336,3.0,-999.0,91,-99.99,,,0.44,weatherlink.com 1.10,2013-04-10 16:30:00,
2013-04-10 12:45:00,47.7,45.0,29.99,WNW,299,0.0,-999.0,90,-99.99,,,0.44,weatherlink.com 1.10,2013-04-10 16:45:00,
2013-04-10 13:00:00,48.6,46.0,29.97,North,10,3.0,-999.0,89,-99.99,,,0.44,weatherlink.com 1.10,2013-04-10 17:00:00,
2013-04-10 13:15:00,49.1,45.0,29.97,NNE,25,7.0,-999.0,86,-99.99,,,0.44,weatherlink.com 1.10,2013-04-10 17:15:00,
2013-04-10 13:30:00,48.9,45.0,29.99,NNW,344,2.0,-999.0,85,-99.99,,,0.44,weatherlink.com 1.10,2013-04-10 17:30:00,
2013-04-10 13:45:00,48.8,45.0,30.00,NE,37,3.0,-999.0,85,-99.99,,,0.00,weatherlink.com 1.10,2013-04-10 17:45:00,
2013-04-10 14:00:00,49.0,45.0,30.00,NNE,32,4.0,-999.0,85,-99.99,,,0.00,weatherlink.com 1.10,2013-04-10 18:00:00,
2013-04-10 14:15:00,49.2,45.0,29.98,North,3,4.0,-999.0,84,-99.99,,,0.00,weatherlink.com 1.10,2013-04-10 18:15:00,
2013-04-10 14:30:00,48.6,44.0,30.00,North,10,0.0,-999.0,84,-99.99,,,0.00,weatherlink.com 1.10,2013-04-10 18:30:00,
2013-04-10 14:45:00,48.7,45.0,29.96,NNE,26,1.0,-999.0,86,-99.99,,,0.00,weatherlink.com 1.10,2013-04-10 18:45:00,
2013-04-10 15:00:00,48.8,45.0,29.93,NNW,344,3.0,-999.0,87,-99.99,,,0.00,weatherlink.com 1.10,2013-04-10 19:00:00,
2013-04-10 15:15:00,48.7,45.0,29.93,NE,43,0.0,-999.0,86,-99.99,,,0.00,weatherlink.com 1.10,2013-04-10 19:15:00,
2013-04-10 15:30:00,49.4,45.0,29.93,NNW,344,8.0,-999.0,84,-99.99,,,0.00,weatherlink.com 1.10,2013-04-10 19:30:00,
2013-04-10 15:45:00,49.7,45.0,29.93,NE,56,3.0,-999.0,83,-99.99,,,0.00,weatherlink.com 1.10,2013-04-10 19:45:00,
2013-04-10 16:00:00,49.2,44.0,29.93,North,351,7.0,-999.0,82,-99.99,,,0.00,weatherlink.com 1.10,2013-04-10 20:00:00,
2013-04-10 16:15:00,49.2,44.0,29.94,North,349,5.0,-999.0,82,-99.99,,,0.00,weatherlink.com 1.10,2013-04-10 20:15:00,
2013-04-10 16:30:00,49.3,44.0,29.93,NNW,334,4.0,-999.0,81,-99.99,,,0.00,weatherlink.com 1.10,2013-04-10 20:30:00,
2013-04-10 16:45:00,49.3,44.0,29.93,North,6,2.0,-999.0,81,-99.99,,,0.00,weatherlink.com 1.10,2013-04-10 20:45:00,
2013-04-10 17:01:00,49.4,44.0,29.93,NW,320,4.0,-999.0,81,-99.99,,,0.00,weatherlink.com 1.10,2013-04-10 21:01:00,
2013-04-10 17:16:00,49.0,43.0,29.93,North,10,0.0,-999.0,81,-99.99,,,0.00,weatherlink.com 1.10,2013-04-10 21:16:00,
2013-04-10 17:31:00,48.9,44.0,29.93,North,10,0.0,-999.0,83,-99.99,,,0.00,weatherlink.com 1.10,2013-04-10 21:31:00,
2013-04-10 17:46:00,48.3,44.0,29.92,NW,321,0.0,-999.0,85,-99.99,,,0.00,weatherlink.com 1.10,2013-04-10 21:46:00,
2013-04-10 18:01:00,47.9,44.0,29.93,NNW,332,3.0,-999.0,86,-99.99,,,0.00,weatherlink.com 1.10,2013-04-10 22:01:00,
2013-04-10 18:16:00,47.6,44.0,29.92,WNW,298,0.0,-999.0,87,-99.99,,,0.00,weatherlink.com 1.10,2013-04-10 22:16:00,
2013-04-10 18:46:00,46.9,44.0,29.90,WNW,298,2.0,-999.0,89,-99.99,,,0.00,weatherlink.com 1.10,2013-04-10 22:46:00,
2013-04-10 19:01:00,46.5,44.0,29.92,NW,314,4.0,-999.0,90,-99.99,,,0.00,weatherlink.com 1.10,2013-04-10 23:01:00,
2013-04-10 19:16:00,46.2,44.0,29.94,NNW,342,3.0,-999.0,90,-99.99,,,0.03,weatherlink.com 1.10,2013-04-10 23:16:00,
2013-04-10 19:31:00,45.4,43.0,29.91,NNW,328,0.0,-999.0,90,-99.99,,,0.06,weatherlink.com 1.10,2013-04-10 23:31:00,
2013-04-10 20:01:00,44.5,42.0,29.92,North,353,4.0,-999.0,92,-99.99,,,0.10,weatherlink.com 1.10,2013-04-11 00:01:00,
2013-04-10 20:16:00,44.2,42.0,29.91,NNW,329,3.0,-999.0,92,-99.99,,,0.12,weatherlink.com 1.10,2013-04-11 00:16:00,
2013-04-10 20:31:00,44.1,42.0,29.93,WNW,291,3.0,-999.0,92,-99.99,,,0.14,weatherlink.com 1.10,2013-04-11 00:31:00,
2013-04-10 20:46:00,44.0,42.0,29.95,NW,312,4.0,-999.0,92,-99.99,,,0.15,weatherlink.com 1.10,2013-04-11 00:46:00,
2013-04-10 21:01:00,44.0,42.0,29.95,NNW,344,2.0,-999.0,91,-99.99,,,0.16,weatherlink.com 1.10,2013-04-11 01:01:00,
2013-04-10 21:16:00,43.7,42.0,29.93,NNE,20,4.0,-999.0,92,-99.99,,,0.16,weatherlink.com 1.10,2013-04-11 01:16:00,
2013-04-10 21:31:00,43.4,42.0,29.94,NNW,345,3.0,-999.0,93,-99.99,,,0.16,weatherlink.com 1.10,2013-04-11 01:31:00,
2013-04-10 21:46:00,43.3,42.0,29.95,NNW,332,1.0,-999.0,94,-99.99,,,0.18,weatherlink.com 1.10,2013-04-11 01:46:00,
2013-04-10 22:01:00,43.2,42.0,29.93,NW,319,0.0,-999.0,94,-99.99,,,0.20,weatherlink.com 1.10,2013-04-11 02:01:00,
2013-04-10 22:46:00,42.9,41.0,29.93,North,358,0.0,-999.0,94,-99.99,,,0.21,weatherlink.com 1.10,2013-04-11 02:46:00,
2013-04-10 23:01:00,42.9,41.0,29.93,North,358,0.0,-999.0,94,-99.99,,,0.21,weatherlink.com 1.10,2013-04-11 03:01:00,
2013-04-10 23:16:00,42.8,41.0,29.94,North,357,0.0,-999.0,94,-99.99,,,0.21,weatherlink.com 1.10,2013-04-11 03:16:00,
2013-04-10 23:46:00,42.7,41.0,29.93,NW,324,0.0,-999.0,94,-99.99,,,0.21,weatherlink.com 1.10,2013-04-11 03:46:00,